Theta_e
328 329 330 329 323 322 326 327 326 329 330 331 333 333 335 337 336 335 334 336 337 333 333 333 333 334 334 333 333 331 326 324 316 312 316 331 326 318 315 314 314 313 316 314 312 313 314 316 317
327 328 330 329 322 325 326 327 331 330 331 332 334 335 335 337 336 335 335 335 337 331 332 334 333 332 332 332 330 326 322 323 315 313 319 327 322 317 314 313 312 312 315 311 312 313 314 315 316
325 329 329 323 319 324 325 327 328 330 331 332 332 335 335 336 335 335 335 336 335 330 332 334 334 332 332 331 329 328 320 323 315 312 329 326 325 319 314 313 312 312 311 312 312 313 313 314 316
324 330 328 326 324 322 325 326 329 329 330 331 333 334 335 337 334 335 335 335 333 329 332 334 334 332 331 331 330 330 317 320 313 312 331 321 328 323 314 312 312 311 311 312 313 313 313 314 316
325 329 326 328 327 323 324 329 328 327 328 329 332 333 335 337 337 337 336 335 332 328 329 332 334 333 332 331 331 329 315 314 311 311 322 326 330 322 317 313 311 311 312 312 313 313 313 314 314
327 327 328 329 330 327 325 329 329 327 329 329 330 334 334 335 337 337 335 333 333 330 326 332 333 332 331 331 331 330 313 313 310 312 327 328 328 324 317 314 312 311 312 312 312 313 313 313 314
328 324 328 329 329 329 326 326 327 326 327 326 328 333 335 335 336 335 334 333 332 331 325 328 332 332 331 332 332 331 313 312 310 312 317 327 323 328 316 313 312 312 312 312 312 312 313 313 313
329 324 328 326 326 328 325 326 327 327 327 328 327 332 333 332 334 336 336 335 334 332 330 326 328 332 331 331 332 331 322 312 310 311 313 313 313 315 313 313 312 312 312 312 312 312 312 312 313
328 323 323 324 326 328 324 325 326 328 329 329 328 330 331 330 333 336 335 335 334 333 331 323 327 327 331 331 331 331 328 317 312 311 312 313 313 313 313 313 312 312 313 312 312 312 312 313 313
327 323 323 321 326 327 328 324 325 325 327 329 330 329 329 331 331 333 334 334 334 333 331 324 320 326 328 330 330 331 330 322 313 311 311 312 313 312 312 312 312 312 312 313 313 313 313 313 313
327 325 324 325 326 327 328 329 327 323 324 326 327 329 331 332 329 331 333 333 332 333 331 325 320 322 327 328 330 330 330 324 316 313 312 312 312 312 312 312 311 311 312 312 313 313 313 313 313
325 326 325 325 325 325 327 327 327 326 323 327 326 326 330 331 329 329 330 332 333 332 331 327 321 321 321 327 326 328 330 326 321 315 313 313 313 312 312 312 311 311 311 312 312 312 313 313 313
319 322 324 322 323 323 323 326 327 327 327 327 327 327 328 331 330 327 327 328 330 331 330 329 321 319 321 323 323 320 326 328 323 319 315 313 312 313 313 312 312 311 311 311 312 312 312 313 313
319 320 320 321 324 322 322 323 325 325 325 325 326 326 328 328 327 330 328 326 325 328 329 330 324 319 320 319 320 315 316 319 320 316 314 314 313 313 313 313 312 312 312 312 311 312 313 313 312
320 320 318 320 321 322 322 321 323 324 325 326 326 326 326 327 327 328 327 326 325 324 327 329 326 319 318 317 317 318 318 315 315 314 314 314 314 314 314 314 312 312 312 312 312 312 312 313 312
320 318 320 318 321 321 322 322 320 322 323 324 324 324 324 325 325 326 326 326 326 326 324 326 327 319 316 316 316 315 316 318 315 314 314 313 313 314 314 313 312 312 312 312 312 312 312 312 312
318 318 319 318 319 320 319 320 319 321 322 322 321 321 322 322 322 324 325 326 326 326 325 324 324 327 321 315 315 315 316 316 315 316 314 313 312 313 313 312 312 313 313 313 312 312 312 312 312
319 319 317 317 317 317 318 318 316 319 320 321 320 322 322 322 322 322 324 325 326 326 328 327 326 325 328 323 316 316 316 316 315 314 313 312 312 312 312 311 311 312 313 313 312 312 312 312 312
317 316 317 316 316 317 315 317 317 318 317 317 320 320 321 320 320 321 321 321 323 325 327 328 328 326 327 329 324 317 314 314 313 313 312 313 312 312 312 312 311 311 312 312 312 312 312 313 313
315 317 316 316 315 315 315 315 314 313 315 316 317 319 322 321 321 320 319 321 321 322 322 326 328 328 328 328 325 325 318 314 314 314 314 313 312 312 312 312 312 312 311 312 312 313 313 313 314
318 317 316 318 317 316 317 318 317 315 316 317 318 319 320 320 320 319 319 319 321 321 322 322 325 328 327 328 329 327 326 321 317 314 314 314 314 313 313 313 313 313 313 312 312 313 313 313 314
319 318 316 317 318 317 316 319 316 315 314 314 316 317 318 318 318 318 319 319 319 320 322 322 324 327 328 328 331 330 326 323 322 318 316 315 314 314 314 314 314 314 314 314 313 313 313 314 314
316 316 318 316 316 317 317 317 316 315 315 314 315 317 317 317 318 318 318 319 319 319 320 320 322 326 328 329 329 330 330 327 323 323 321 319 317 315 315 315 315 315 314 314 314 314 314 314 315
314 315 315 315 317 319 317 316 315 313 314 312 314 315 316 316 316 317 318 318 318 318 318 319 321 322 325 328 329 329 329 329 328 325 323 322 322 320 317 316 316 315 315 315 315 315 315 315 316
315 316 308 320 319 317 312 315 315 312 312 312 312 314 316 316 316 317 317 318 318 318 320 320 320 321 321 324 326 328 328 328 329 329 327 325 322 321 321 321 320 318 318 316 316 316 316 316 316
317 316 315 310 312 314 312 317 315 313 314 315 315 315 315 316 316 317 318 320 321 321 320 320 320 319 322 324 324 325 327 328 328 328 329 328 327 324 322 322 322 322 322 320 319 318 318 318 318
315 318 313 310 305 308 311 312 313 313 312 312 314 314 316 314 316 316 316 312 312 315 315 318 320 320 321 322 324 326 328 329 327 327 327 328 328 328 327 324 325 325 324 323 323 322 322 321 321
314 313 317 314 314 314 313 314 313 314 314 312 312 312 313 313 314 313 311 312 313 314 314 313 313 313 317 319 322 324 326 327 328 328 328 328 328 328 328 326 327 328 327 325 325 324 324 324 324
315 314 313 313 312 312 311 311 309 311 309 311 310 312 312 312 311 311 311 311 312 312 311 312 312 313 314 314 313 316 318 319 322 324 325 327 327 328 327 327 327 327 327 327 327 326 326 326 326
313 314 314 314 312 309 311 311 311 310 309 311 312 310 310 310 310 310 310 310 310 312 313 314 314 313 311 312 313 313 312 317 323 324 326 326 327 328 327 326 327 328 328 328 328 327 327 326 325
Wind_Speed
22 25 19 4 4 5 1 1 1 3 2 5 6 10 8 5 1 3 13 10 8 10 13 12 12 12 11 9 6 3 4 7 8 8 11 13 10 10 11 11 14 14 15 15 16 17 17 17 15
25 23 9 3 5 4 3 2 5 1 6 13 14 10 5 2 3 7 16 12 9 11 13 12 13 11 10 7 4 2 3 8 9 10 11 12 9 9 11 10 13 13 13 14 16 16 16 14 12
22 15 6 4 3 4 4 3 5 5 5 3 5 7 4 6 6 14 11 16 11 13 14 14 13 10 8 6 3 2 2 8 9 11 11 10 9 10 11 11 11 12 12 14 14 15 14 12 10
18 7 3 4 1 1 6 6 6 6 4 4 10 7 4 5 13 11 12 14 15 16 14 14 14 11 9 6 4 2 3 6 8 11 12 9 9 8 10 10 9 10 12 12 13 13 12 11 9
11 4 4 2 3 0 1 13 13 5 4 5 5 4 6 11 6 9 13 16 15 16 15 15 15 13 9 7 5 2 3 6 8 11 12 9 12 9 9 9 9 9 11 11 11 11 10 9 8
6 3 3 1 3 1 3 12 9 7 6 6 6 9 5 8 10 14 15 16 13 12 15 16 16 15 12 8 6 3 4 8 11 13 13 11 11 9 9 10 10 9 9 10 10 9 9 8 7
3 3 2 1 3 2 2 2 9 10 8 4 12 5 5 12 10 17 17 15 13 12 12 17 17 16 15 12 8 5 4 6 9 10 12 12 12 11 8 10 9 9 8 8 8 8 7 7 6
2 4 3 1 2 1 4 3 4 8 4 7 4 6 5 16 17 20 16 14 13 13 13 17 18 18 16 15 13 9 5 4 7 9 10 9 7 9 7 7 8 8 7 7 7 7 6 6 5
1 4 2 3 4 4 3 3 3 4 7 3 3 3 3 15 20 23 21 19 17 15 14 17 19 18 17 16 14 12 9 8 9 10 10 9 9 8 9 7 6 7 8 7 7 6 6 5 5
3 4 8 4 2 4 7 2 5 1 2 1 3 4 7 15 19 25 25 24 22 20 18 17 20 20 20 18 17 16 14 12 11 12 12 12 11 10 9 8 8 9 8 8 7 6 6 6 5
4 5 4 3 3 7 8 4 4 1 1 2 7 9 11 16 19 25 25 25 22 20 19 18 19 21 21 22 21 20 17 15 13 14 14 14 14 12 12 11 10 10 10 10 9 8 8 7 6
2 10 7 5 4 5 5 6 7 2 2 7 7 10 13 16 18 22 24 26 26 25 22 20 20 20 20 22 25 24 22 19 17 15 16 17 16 14 14 12 12 11 11 12 11 10 10 8 7
4 4 13 16 18 14 9 11 6 11 11 9 8 8 12 18 18 20 20 21 25 28 25 25 23 23 21 23 24 25 25 23 19 19 20 20 19 17 15 14 14 14 14 14 13 12 12 10 9
4 6 12 11 15 13 5 11 7 6 11 14 11 10 13 17 18 20 21 21 23 27 28 26 28 26 25 25 26 24 23 23 22 22 21 22 20 18 16 16 16 16 16 15 15 14 14 12 11
12 4 6 6 7 5 10 5 9 24 17 19 20 20 20 21 22 22 20 21 21 23 26 28 29 30 29 28 27 26 25 24 25 23 21 23 22 20 19 19 19 17 17 17 17 16 16 15 12
4 4 2 4 9 6 3 14 7 15 21 26 26 21 23 23 24 24 23 22 21 23 24 26 28 30 32 31 30 29 27 27 26 24 23 23 24 23 22 22 21 18 18 19 19 18 18 17 15
2 3 6 7 9 3 7 4 6 16 26 26 28 28 21 21 22 26 28 28 25 24 25 25 28 30 31 33 33 31 30 29 28 27 26 25 26 25 24 24 22 20 21 21 20 20 20 19 17
7 7 5 6 5 8 12 18 14 30 23 28 28 25 25 21 19 16 17 26 29 29 28 28 29 29 29 32 35 35 34 33 32 32 31 29 28 26 26 25 24 24 24 24 23 23 22 21 18
10 5 10 3 6 2 7 15 13 27 28 29 33 30 32 28 27 26 23 21 21 30 32 31 32 33 32 34 36 39 40 38 36 36 34 33 30 28 29 28 27 27 28 26 24 24 24 23 21
7 14 9 4 4 7 9 16 13 14 23 25 28 33 31 27 26 29 30 28 26 28 28 33 35 36 37 36 35 38 39 40 39 38 39 36 34 31 31 32 31 29 30 30 28 28 27 25 24
18 18 8 4 2 4 2 16 11 7 17 22 16 15 15 18 23 35 36 33 30 30 30 32 35 39 38 39 39 38 38 41 44 44 44 41 38 36 35 34 34 33 33 34 33 31 31 29 27
20 15 6 7 5 8 5 10 6 4 9 8 18 18 21 25 30 31 36 35 35 38 35 32 34 39 41 40 43 44 42 42 44 48 46 43 42 41 39 38 37 37 37 38 38 34 33 32 31
10 10 13 6 6 1 9 2 5 4 8 8 14 24 24 22 24 27 34 31 30 31 34 39 38 40 43 44 45 45 47 44 38 46 49 46 45 44 43 41 42 42 42 40 41 39 37 37 36
6 5 4 4 6 11 19 6 16 11 9 8 14 26 25 28 27 30 32 31 32 31 32 33 39 42 41 43 46 48 48 46 45 46 48 48 47 46 45 45 45 45 45 46 44 42 40 40 41
8 7 1 7 8 16 9 7 23 5 9 12 14 27 32 30 32 30 27 21 30 25 19 28 34 41 42 46 47 50 47 47 47 47 49 51 49 47 43 45 47 48 47 47 46 44 44 44 46
18 18 6 8 6 6 5 10 13 6 22 29 31 35 31 30 29 25 17 12 10 12 16 17 21 31 40 47 47 49 52 50 50 49 49 50 55 51 43 46 46 46 46 47 48 47 46 46 47
8 13 12 5 2 3 5 7 7 9 10 11 17 19 11 3 7 7 9 10 7 7 8 12 16 18 21 32 43 49 52 55 53 52 52 54 51 53 49 50 50 47 45 45 48 48 48 48 48
12 9 7 7 6 6 4 4 6 2 2 6 4 12 7 11 8 12 17 16 14 14 15 16 15 13 17 23 29 36 43 49 54 53 55 55 54 52 47 53 53 50 45 45 47 47 48 49 47
8 8 5 4 5 5 3 6 8 12 8 7 7 7 9 11 13 13 13 13 13 13 15 16 15 14 14 16 20 31 38 42 46 49 49 53 54 55 50 49 52 53 51 47 46 48 47 47 46
18 21 17 7 6 3 2 7 3 7 9 12 8 9 12 11 12 14 14 15 16 17 15 16 19 21 18 19 22 24 28 34 40 45 47 45 49 51 49 45 48 51 53 50 46 46 45 43 52
Wind_Direction
344 339 339 35 54 63 3 47 142 126 52 84 72 98 115 76 69 174 144 153 180 173 170 168 154 150 151 151 142 118 98 105 103 110 107 116 116 105 105 108 113 112 115 110 104 107 107 103 96
341 336 358 26 84 72 300 288 109 156 142 113 98 101 58 98 129 154 156 178 179 180 173 176 167 166 157 146 123 88 113 124 121 130 123 124 120 116 110 112 118 115 113 109 110 113 110 108 103
337 338 1 81 100 155 175 207 162 138 131 130 109 98 111 137 163 162 168 166 178 182 177 176 177 170 162 147 131 98 95 137 134 143 129 131 124 119 124 119 122 117 112 111 118 116 114 114 102
338 340 43 74 82 328 163 183 171 135 121 101 128 79 105 161 147 178 188 179 175 181 183 180 177 179 175 166 152 123 112 137 142 153 131 138 130 136 126 124 123 121 117 124 122 120 121 119 111
341 350 34 28 331 284 213 168 159 143 165 136 152 168 143 161 175 191 191 189 186 177 185 184 181 183 185 181 179 157 136 146 147 155 147 150 141 145 147 139 134 130 128 125 122 124 126 123 116
353 14 36 81 338 270 273 183 157 143 170 155 114 132 160 180 191 193 193 191 192 187 184 188 187 187 188 189 189 169 161 170 165 164 157 155 150 155 160 154 148 141 133 129 132 132 129 130 125
67 66 229 225 285 280 273 183 159 165 167 198 145 119 172 182 189 190 194 196 197 201 197 193 193 194 190 187 191 198 187 187 172 172 168 167 165 167 155 159 154 145 140 146 145 138 139 137 134
47 91 304 300 276 341 318 350 55 167 177 143 164 174 203 185 176 183 199 205 210 205 205 202 202 198 202 195 191 194 195 194 186 183 190 182 171 184 181 179 162 153 160 165 156 152 149 150 147
229 75 252 267 23 307 356 6 25 80 135 146 155 187 227 177 172 186 193 205 216 212 213 206 207 209 204 206 202 199 201 209 203 196 193 199 193 192 198 193 178 180 183 180 176 169 168 174 174
172 134 213 177 75 328 342 47 326 127 144 186 187 203 181 183 185 191 197 208 217 217 212 211 210 211 211 210 211 209 210 211 210 206 207 205 206 208 206 200 199 203 200 199 196 193 197 202 203
202 192 225 190 4 0 334 326 12 340 286 212 265 241 203 191 198 200 206 218 228 228 223 215 210 211 215 216 215 216 216 215 215 214 211 216 217 215 214 213 213 215 214 215 215 214 218 221 232
227 232 235 290 286 352 297 295 315 242 240 329 307 286 229 212 210 211 215 221 225 228 232 225 218 215 215 220 226 218 219 221 222 225 223 222 222 221 221 223 223 224 225 226 227 230 233 238 248
226 272 265 278 283 296 293 277 260 262 268 296 297 262 238 227 227 223 227 230 233 231 227 233 227 223 221 220 224 220 218 225 227 232 232 231 227 226 228 230 232 230 231 232 233 237 244 245 253
198 278 286 292 277 278 273 278 262 235 257 270 283 262 241 246 246 232 231 237 236 232 230 230 233 231 228 225 229 224 221 226 229 228 231 235 237 235 235 237 239 238 237 236 237 240 245 248 254
257 286 298 249 262 261 324 283 231 269 266 270 268 268 268 258 248 246 268 258 252 246 236 230 234 235 234 232 231 233 226 229 231 230 231 237 241 241 242 244 242 242 239 240 240 241 247 251 255
177 121 205 240 207 232 144 259 267 270 269 260 266 270 278 266 258 262 267 269 258 246 240 234 233 236 237 236 236 237 236 236 238 237 239 241 243 242 243 245 246 242 241 243 244 245 249 254 257
339 158 193 263 212 184 186 268 255 256 246 252 265 273 271 276 268 264 266 266 265 260 248 240 236 236 240 241 239 240 241 241 244 244 244 246 245 243 244 246 246 246 245 246 248 247 251 254 257
191 197 221 188 227 203 238 252 261 265 264 257 259 260 261 273 279 291 286 269 264 263 258 250 244 242 240 243 242 241 242 244 245 247 247 246 245 244 246 247 246 243 246 245 247 248 250 254 257
188 201 210 210 232 204 238 259 251 257 257 253 256 254 263 272 281 281 288 288 277 265 258 255 249 246 240 238 239 238 238 239 241 244 245 245 244 244 245 247 246 244 246 249 250 252 250 252 254
202 212 215 257 210 171 265 266 254 243 257 252 256 256 251 261 271 282 282 281 277 269 269 262 256 249 246 242 244 243 244 244 245 247 246 246 245 245 245 245 246 246 247 248 245 246 248 250 248
219 219 186 175 198 250 322 283 262 236 246 256 254 257 260 266 271 278 280 269 266 269 266 262 262 255 251 248 245 244 245 249 248 247 247 245 245 245 245 246 247 246 247 249 248 246 247 249 248
217 215 163 187 160 240 154 265 239 201 246 244 263 259 267 273 275 274 273 273 266 264 267 264 260 257 253 249 247 247 246 249 252 250 252 252 247 247 246 247 247 247 247 248 250 247 247 248 248
223 170 193 175 194 97 242 268 270 185 250 253 266 272 272 273 275 275 267 267 270 274 269 261 259 257 252 249 250 252 250 250 258 256 254 254 254 251 250 250 250 249 249 250 251 249 247 249 249
137 84 132 144 187 236 239 179 267 239 248 249 241 258 264 272 273 276 270 279 278 279 274 268 259 255 253 252 254 251 253 253 253 253 256 255 254 255 253 253 251 251 251 252 252 253 251 251 252
174 141 193 214 215 236 152 176 243 242 244 251 268 268 270 272 277 273 279 268 287 281 281 267 263 259 257 251 252 253 254 255 256 257 259 258 258 256 257 255 254 252 253 253 254 254 253 252 251
197 201 191 197 204 234 158 222 237 234 247 257 255 268 273 275 275 277 273 277 283 286 275 283 276 266 259 256 256 258 257 256 259 260 260 263 261 260 261 261 260 258 258 256 256 255 256 255 254
195 207 202 97 100 82 209 279 292 251 268 294 274 268 265 196 139 100 72 32 9 16 332 287 273 270 265 263 262 260 262 259 260 263 264 263 264 263 263 262 262 261 259 259 258 256 255 257 256
181 157 179 208 194 227 240 264 233 281 244 344 129 161 128 105 92 52 30 24 15 12 8 4 359 319 283 267 264 266 266 267 266 265 266 266 268 266 267 265 265 266 262 261 259 258 256 256 257
174 203 197 173 173 189 195 247 205 232 215 161 145 121 63 69 42 36 26 17 7 353 342 339 339 334 330 324 294 272 267 266 266 265 264 265 266 265 266 267 268 269 269 266 263 258 257 258 259
197 209 199 204 221 214 132 254 224 213 139 138 127 98 73 62 42 33 19 360 348 342 337 330 327 327 324 320 320 312 290 274 268 266 264 266 266 266 267 266 269 269 268 266 264 261 261 258 259